Cloud_Cover
99 99 100 100 100 100 100 100 100 100 100 100 100 100 100 100 100 100 100 100 100 100 100 57 83 100 100 100 65 100 100 98 100 61 3 0 0 12 0 31 100 100 85
100 100 100 100 100 100 100 100 100 100 100 100 100 100 100 100 100 100 100 100 100 100 100 100 83 100 100 100 100 98 100 100 87 100 8 4 0 1 0 0 0 5 32
100 100 100 100 100 100 100 100 100 100 100 100 100 100 100 100 100 100 100 100 100 100 100 100 100 100 100 100 100 100 97 99 100 22 79 8 5 4 0 0 0 8 5
100 99 100 100 100 100 100 100 100 100 100 100 100 100 100 100 100 100 100 100 100 100 100 100 100 100 100 100 100 100 100 100 100 99 68 13 5 3 0 0 2 7 11
91 100 79 92 100 100 100 100 100 100 100 100 100 100 100 100 100 100 100 100 100 100 100 100 100 100 100 100 100 100 100 100 26 100 97 6 8 5 1 5 0 6 2
95 92 19 25 100 100 100 100 100 100 100 100 100 100 100 100 100 100 100 100 100 100 100 97 100 100 100 100 100 100 100 100 100 74 100 83 28 5 25 30 0 0 0
100 98 94 90 5 18 100 100 100 100 100 100 100 100 100 100 100 100 100 100 100 100 100 100 100 98 100 100 100 100 100 100 100 100 100 86 67 42 5 98 46 1 7
41 52 5 19 5 47 2 13 96 100 100 100 100 100 100 100 100 100 100 100 100 100 100 100 100 100 100 100 100 100 100 100 100 100 100 100 93 70 7 97 99 5 6
0 0 53 92 35 30 95 27 80 99 100 100 100 100 100 100 100 100 100 100 100 100 100 100 100 100 100 100 100 100 100 100 100 100 100 92 100 100 42 100 100 19 5
0 0 0 0 9 94 100 98 41 50 100 100 100 100 100 100 100 100 100 100 100 100 100 100 100 100 100 100 100 100 100 100 98 100 100 100 78 100 99 58 100 85 5
0 0 0 0 0 0 0 27 93 100 100 8 27 100 100 100 100 100 100 100 100 100 100 100 99 92 100 100 100 100 100 100 91 36 100 100 100 66 90 100 100 98 100
0 0 0 0 0 0 0 0 0 5 100 100 91 48 45 96 100 100 100 100 100 100 100 100 99 92 100 92 99 100 100 100 99 42 57 100 100 99 99 34 100 100 100
0 0 0 0 0 0 0 0 0 0 0 37 100 100 100 90 10 40 100 100 100 100 100 100 100 100 100 95 100 100 100 100 100 87 39 81 100 100 100 100 79 100 100
0 0 0 0 0 0 0 0 0 0 0 0 0 1 94 100 82 5 11 76 100 100 100 100 100 100 100 100 100 100 100 100 100 100 100 15 99 100 100 100 100 100 100
0 2 4 0 0 0 0 0 0 0 0 0 0 0 0 0 0 25 99 76 6 56 100 100 100 100 100 100 88 100 100 100 100 100 100 100 100 100 100 100 100 100 100
1 0 2 0 0 0 0 0 0 0 0 0 0 0 0 0 0 0 0 40 99 100 10 62 54 100 100 100 100 100 100 100 100 100 99 100 100 100 100 100 100 100 100
2 5 5 15 0 3 0 0 0 0 0 0 0 0 0 0 0 0 0 0 0 7 11 99 5 6 100 100 100 100 100 100 100 100 100 100 100 100 100 100 100 100 100
5 5 5 2 0 1 0 0 0 0 0 0 0 0 0 0 0 0 0 0 5 1 5 5 64 31 5 38 97 100 100 100 100 100 100 100 99 100 100 100 100 100 100
5 5 5 4 1 0 0 0 0 0 0 0 0 0 0 0 0 0 0 0 5 5 5 5 5 20 23 25 5 11 56 76 100 100 100 100 100 100 100 100 100 100 100
5 5 5 7 5 1 0 0 0 0 0 0 0 0 0 0 0 3 0 0 0 5 5 5 5 5 6 5 7 74 25 9 9 96 100 100 100 100 100 100 100 100 100
20 5 5 5 0 0 0 0 4 1 0 0 0 0 0 0 0 4 5 5 3 5 5 5 5 5 5 10 6 6 92 44 37 15 39 100 100 100 100 100 100 100 74
5 5 5 5 0 3 5 4 0 0 0 0 0 0 0 0 0 0 0 5 5 5 5 5 5 5 6 63 41 62 46 99 97 35 6 82 100 100 100 100 100 100 99
8 5 3 0 0 95 11 0 0 0 0 0 0 0 0 0 0 0 5 5 5 5 5 5 5 50 90 14 46 95 97 100 98 48 97 51 100 100 100 100 100 100 100
4 0 0 14 89 2 0 0 0 0 1 0 0 0 0 0 4 5 5 5 5 5 25 5 5 7 75 12 44 24 98 100 100 96 98 100 100 100 100 100 100 100 100
4 0 5 67 0 3 0 0 0 0 0 3 5 5 4 4 5 5 5 5 5 5 19 33 5 59 83 68 91 95 100 94 100 100 100 99 100 100 100 100 100 100 100
0 22 8 4 3 0 0 0 0 0 3 5 5 5 5 5 5 5 6 8 45 50 20 68 79 84 92 92 82 99 96 99 100 100 100 100 100 100 100 100 100 100 100